[[{"header":{"parameterUnit":"m.s-1","parameterCategory":1,"la1":30.2991,"la2":30.254,"lo1":-89.0895,"lo2":-89.0444,"dy":0.0017,"dx":0.0017,"nx":28,"ny":28,"refTime":"2024-09-02T03:00:00:Z","depth":0,"parameterNumber":2,"parameterNumberName":"U-component_of_WINDS"},"data":[0,0,0,0,0,0,0,0,0,0,0,0,0,0,0,0,0,0,0,0,0,0,0,0,0,0,0,0,0,0,0,0,0,0,0,0,0,0,0,0,0,0,0,0,0,0,0,0,0,0,0,0,0,0,0,0,0,0,-5.3262,-5.3263,0,-5.334,-5.3341,-5.3342,-5.3257,-5.3254,-5.325,-5.3247,-5.3333,-5.3338,-5.3343,0,0,0,0,0,0,0,0,0,0,0,0,0,-5.3044,-5.3049,-5.3262,-5.3263,-5.3264,-5.334,-5.3341,-5.3343,-5.3258,-5.3254,-5.325,-5.3246,-5.3331,-5.3337,-5.3344,0,0,0,0,0,0,0,0,0,0,0,0,0,-5.3133,-5.305,-5.3261,-5.323,-5.3228,-5.334,-5.3341,-5.3343,-5.3258,-5.3254,-5.3249,-5.3244,-5.3329,-5.3337,-5.3345,-5.3492,0,0,-5.3369,-5.3373,0,0,0,0,0,0,0,0,-5.3128,-5.3141,-5.3234,-5.3233,-5.3231,-5.3284,-5.3296,-5.3393,-5.326,-5.3247,-5.3247,-5.3242,-5.3321,-5.3329,-5.3355,-5.3496,-5.35,-5.337,-5.3375,-5.3378,-5.338,0,0,0,0,0,0,0,-5.3122,-5.3137,-5.3293,-5.3235,-5.3234,-5.3215,-5.3222,-5.3314,-5.3311,-5.3248,-5.3242,-5.3252,-5.3319,-5.3347,-5.3356,-5.3501,-5.337,-5.3377,-5.3382,-5.3385,-5.3772,-5.3777,0,0,0,0,0,0,-5.3118,-5.3132,-5.329,-5.3295,-5.3166,-5.3223,-5.323,-5.3272,-5.3309,-5.331,-5.3256,-5.3248,-5.3336,-5.3347,-5.3359,-5.3536,-5.3378,-5.3386,-5.339,-5.3766,-5.3773,-5.3779,0,0,0,0,0,0,-5.3114,-5.3133,-5.3287,-5.3212,-5.323,-5.3231,-5.3279,-5.3276,-5.3304,-5.3316,-5.3315,-5.3285,-5.3333,-5.3348,-5.346,-5.3538,-5.3389,-5.3396,-5.376,-5.3768,-5.3776,-5.3891,0,0,0,0,0,0,-5.3108,-5.3132,-5.3186,-5.3214,-5.3235,-5.3385,-5.3283,-5.3281,-5.3318,-5.3307,-5.3343,-5.3344,-5.333,-5.3449,-5.3468,-5.3546,-5.3403,-5.3753,-5.3764,-5.3773,-5.388,-5.3902,-5.3921,0,0,0,0,0,-5.31,-5.3216,-5.3189,-5.3209,-5.3302,-5.339,-5.3402,-5.3382,-5.3324,-5.338,-5.3388,-5.3343,-5.3527,-5.3461,-5.3482,-5.3564,-5.3748,-5.3761,-5.3773,-5.3871,-5.3898,-5.392,0,0,0,0,0,0,-5.3198,-5.3219,-5.319,-5.3317,-5.3352,-5.3375,-5.3445,-5.341,-5.3464,-5.3452,-5.3427,-5.3436,-5.3556,-5.3571,-5.3498,-5.3711,-5.3628,-5.3645,-5.3696,-5.3721,-5.3741,-5.3735,-5.3409,0,0,0,0,0,-5.3234,-5.3301,-5.3317,-5.3428,-5.3447,-5.3444,-5.3481,-5.3463,-5.3499,-5.3514,-5.353,-5.3568,-5.3635,-5.3679,-5.374,-5.3883,-5.3891,-5.395,-5.397,-5.3986,-5.4002,-5.4081,-5.4108,-5.382,-5.3819,-5.3819,0,0,-5.3309,-5.3329,-5.3373,-5.3448,-5.3473,-5.3546,-5.3456,-5.3536,-5.3591,-5.3526,-5.3633,-5.3647,-5.3689,-5.3818,-5.3875,-5.3834,-5.4083,-5.4002,-5.4015,-5.4021,-5.4096,-5.4124,-5.4148,-5.3828,-5.3826,-5.3825,0,0,-5.3484,-5.3505,-5.3601,-5.3628,-5.3668,-5.3665,-5.3689,-5.3718,-5.3724,-5.3831,-5.3785,-5.3851,-5.3965,-5.3997,-5.4029,-5.4221,-5.4182,-5.4242,-5.4347,-5.4425,-5.4448,-5.4468,-5.4538,-5.4563,-5.4257,-5.4257,-5.4257,0,-5.3573,-5.3679,-5.3655,-5.3739,-5.3775,-5.3719,-5.3818,-5.3846,-5.3905,-5.3931,-5.3885,-5.4029,-5.4053,-5.419,-5.4237,-5.4264,-5.4292,-5.4237,-5.4446,-5.4466,-5.4485,-5.4551,-5.4578,-5.4264,-5.4263,-5.4263,-5.4262,0,-5.3788,-5.3863,-5.3936,-5.3993,-5.4037,-5.4128,-5.412,-5.4168,-5.4147,-5.4151,-5.4263,-5.429,-5.4357,-5.4389,-5.4369,-5.4524,-5.4498,-5.445,-5.4366,-5.452,-5.4582,-5.4607,-5.4274,-5.4272,-5.427,-5.4268,0,0,-5.4023,-5.4068,-5.4095,-5.4122,-5.4163,-5.4221,-5.4312,-5.4377,-5.442,-5.4463,-5.454,-5.464,-5.4596,-5.4632,-5.4616,-5.4685,-5.4838,-5.4628,-5.4629,-5.4667,-5.5013,-5.505,-5.5079,-5.4813,-5.4817,-5.4821,-5.501,0,-5.42,-5.4354,-5.4337,-5.4486,-5.4556,-5.4506,-5.4586,-5.4621,-5.4628,-5.4691,-5.4699,-5.4771,-5.4706,-5.4728,-5.4793,-5.4805,-5.4907,-5.4791,-5.4886,-5.489,-5.4877,-5.5112,-5.515,-5.5326,-5.5034,-5.5038,-5.5041,0,-5.4425,-5.4476,-5.4632,-5.4665,-5.4694,-5.4765,-5.4825,-5.4885,-5.4926,-5.4927,-5.4969,-5.4942,-5.5036,-5.4952,-5.5083,-5.5005,-5.5043,-5.5055,-5.5062,-5.507,-5.4975,-5.5127,-5.5382,-5.5409,-5.5079,-5.5076,-5.5073,0,-5.4583,-5.4691,-5.4798,-5.4823,-5.4864,-5.4916,-5.4936,-5.4971,-5.5013,-5.5067,-5.5094,-5.5158,-5.5194,-5.5246,-5.5239,-5.5178,-5.5374,-5.5288,-5.5379,-5.5379,-5.5421,-5.5419,-5.5687,-5.5446,-5.5446,-5.5445,-5.5444,0,-5.4781,-5.4879,-5.487,-5.4936,-5.5046,-5.5027,-5.5136,-5.515,-5.5183,-5.5254,-5.5215,-5.5283,-5.5269,-5.5337,-5.5333,-5.5443,-5.546,-5.5464,-5.5462,-5.5468,-5.5468,-5.5493,-5.548,-5.5452,-5.545,-5.5449,-5.5448,0,-5.4975,-5.4973,-5.5087,-5.5118,-5.5128,-5.5207,-5.5235,-5.5299,-5.5303,-5.5393,-5.5413,-5.5422,-5.55,-5.5498,-5.5588,-5.5585,-5.5722,-5.5705,-5.5707,-5.5704,-5.5796,-5.5787,-5.6089,-5.6129,-5.5862,-5.5864,-5.5866,0,-5.5102,-5.5176,-5.5215,-5.5259,-5.5282,-5.5353,-5.5395,-5.5382,-5.5428,-5.5482,-5.5541,-5.5616,-5.5674,-5.5803,-5.5818,-5.5888,-5.5873,-5.5974,-5.5883,-5.5888,-5.5876,-5.5872,-5.588,-5.5992,-5.5995,-5.5997,-5.5999,0,-5.5328,-5.5324,-5.5385,-5.5448,-5.55,-5.5549,-5.5594,-5.5633,-5.5624,-5.5679,-5.5758,-5.5804,-5.5897,-5.5973,-5.604,-5.6063,-5.6032,-5.6028,-5.6053,-5.606,-5.6058,-5.6062,-5.5757,-5.6021,-5.6019,-5.6017,-5.6016,-5.6015,-5.5492,-5.5557,-5.5595,-5.5666,-5.5699,-5.5743,-5.5805,-5.5819,-5.5884,-5.5957,-5.5946,-5.6036,-5.6079,-5.6166,-5.6195,-5.6267,-5.6232,-5.6267,-5.6277,-5.6286,-5.6297,-5.6047,-5.6279,-5.6279,-5.6278,-5.6278,-5.6277,0,-5.5717,-5.574,-5.5805,-5.587,-5.5927,-5.5892,-5.5941,-5.5992,-5.607,-5.6113,-5.6172,-5.6265,-5.634,-5.6363,-5.6435,-5.6489,-5.6476,-5.6509,-5.6504,-5.6511,-5.6323,-5.6295,-5.6518,-5.6517,-5.6517,-5.6517,-5.6517,-5.6517,-5.584,-5.5948,-5.595,-5.6075,-5.6098,-5.6184,-5.6216,-5.6258,-5.6291,-5.6397,-5.6458,-5.6472,-5.6508,-5.6584,-5.6652,-5.6657,-5.6686,-5.6724,-5.6724,-5.6548,-5.6524,-5.6501,-5.6474,-5.6731,-5.6731,-5.6905,-5.6907,-5.6908]},{"header":{"parameterUnit":"m.s-1","parameterCategory":1,"la1":30.2991,"la2":30.254,"lo1":-89.0895,"lo2":-89.0444,"dy":0.0017,"dx":0.0017,"nx":28,"ny":28,"refTime":"2024-09-02T03:00:00:Z","depth":0,"parameterNumber":3,"parameterNumberName":"V-component_of_WINDS"},"data":[0,0,0,0,0,0,0,0,0,0,0,0,0,0,0,0,0,0,0,0,0,0,0,0,0,0,0,0,0,0,0,0,0,0,0,0,0,0,0,0,0,0,0,0,0,0,0,0,0,0,0,0,0,0,0,0,0,0,1.0621,1.0621,0,1.0636,1.0637,1.0637,1.0716,1.0718,1.072,1.0722,1.0731,1.073,1.0728,0,0,0,0,0,0,0,0,0,0,0,0,0,1.0655,1.0654,1.0621,1.0621,1.0621,1.0636,1.0637,1.0637,1.0716,1.0718,1.0721,1.0723,1.0732,1.073,1.0728,0,0,0,0,0,0,0,0,0,0,0,0,0,1.0652,1.0654,1.0621,1.0663,1.0667,1.0636,1.0637,1.0637,1.0716,1.0718,1.0721,1.0724,1.0732,1.073,1.0728,1.0656,0,0,1.0721,1.072,0,0,0,0,0,0,0,0,1.0652,1.0651,1.0657,1.066,1.0664,1.0678,1.0652,1.0643,1.0715,1.0697,1.0722,1.0725,1.0711,1.071,1.0707,1.0657,1.0657,1.0721,1.0719,1.0718,1.0718,0,0,0,0,0,0,0,1.0652,1.0651,1.0627,1.0656,1.0661,1.0679,1.0682,1.0651,1.0687,1.0699,1.0705,1.0706,1.0713,1.0709,1.0708,1.0657,1.0721,1.0719,1.0717,1.0716,1.0549,1.0546,0,0,0,0,0,0,1.0648,1.065,1.0626,1.0627,1.0666,1.0676,1.068,1.067,1.0688,1.0694,1.0703,1.0709,1.0711,1.071,1.0708,1.0624,1.0718,1.0716,1.0715,1.0552,1.0548,1.0545,0,0,0,0,0,0,1.0648,1.0645,1.0626,1.0641,1.064,1.0673,1.0662,1.0669,1.0665,1.0691,1.0698,1.0692,1.0714,1.0711,1.0669,1.0626,1.0715,1.0713,1.0555,1.0551,1.0546,1.0456,0,0,0,0,0,0,1.0649,1.0644,1.0618,1.0639,1.0639,1.0587,1.0659,1.0667,1.0661,1.0669,1.0683,1.0687,1.0716,1.0672,1.0667,1.0624,1.0711,1.0559,1.0553,1.0548,1.0463,1.0449,1.0437,0,0,0,0,0,1.065,1.0591,1.0617,1.0613,1.0607,1.0585,1.0584,1.0619,1.0658,1.0631,1.0648,1.0687,1.0632,1.0667,1.0662,1.0618,1.0562,1.0555,1.0548,1.0469,1.0452,1.0437,0,0,0,0,0,0,1.0561,1.0595,1.0623,1.057,1.0574,1.0598,1.0566,1.06,1.0592,1.0599,1.0642,1.0645,1.0595,1.0603,1.0641,1.0549,1.0604,1.0595,1.0545,1.0529,1.0516,1.0514,1.0709,0,0,0,0,0,1.0537,1.0517,1.0547,1.0497,1.0498,1.0531,1.0523,1.055,1.0555,1.0557,1.0571,1.0573,1.0556,1.0544,1.053,1.0466,1.0469,1.0433,1.042,1.041,1.04,1.0366,1.035,1.0522,1.0522,1.0522,0,0,1.0483,1.0499,1.0484,1.048,1.0486,1.0463,1.0532,1.0505,1.0488,1.0552,1.0513,1.0524,1.0528,1.0475,1.0452,1.0479,1.0354,1.0401,1.0392,1.0389,1.0357,1.0341,1.0326,1.0517,1.0518,1.0519,0,0,1.0374,1.0385,1.0345,1.035,1.036,1.0383,1.0374,1.0393,1.0403,1.0365,1.0412,1.0393,1.0363,1.0364,1.0361,1.0255,1.0289,1.0249,1.0179,1.0145,1.0131,1.012,1.0079,1.0064,1.0241,1.0241,1.0241,0,1.0306,1.0275,1.0319,1.0289,1.0285,1.0346,1.0303,1.0306,1.031,1.0305,1.0337,1.0302,1.031,1.0256,1.023,1.0227,1.0215,1.0246,1.0131,1.0119,1.0108,1.007,1.0055,1.0236,1.0236,1.0237,1.0237,0,1.019,1.0168,1.0134,1.0138,1.0131,1.0095,1.0132,1.0119,1.0148,1.0167,1.0127,1.0139,1.0128,1.0118,1.0145,1.0068,1.0085,1.0123,1.0178,1.0086,1.0051,1.0037,1.0228,1.023,1.0232,1.0233,0,0,1.0021,1.0053,1.0039,1.0042,1.0058,1.0041,1.0008,1.0,0.9987,0.9989,0.996,0.9935,0.9971,0.9967,0.9995,0.9966,0.9878,1.0008,1.0008,0.998,0.9791,0.976,0.9742,0.9903,0.9901,0.9899,0.979,0,0.9915,0.9861,0.99,0.9839,0.9818,0.9877,0.9848,0.9853,0.9871,0.9855,0.9874,0.9855,0.9905,0.9903,0.9877,0.9894,0.984,0.9903,0.9874,0.9872,0.9867,0.9724,0.9691,0.9587,0.9777,0.9775,0.9773,0,0.9782,0.978,0.9717,0.9738,0.9731,0.9704,0.97,0.9685,0.9693,0.9708,0.9704,0.9741,0.9708,0.9765,0.9719,0.9761,0.9752,0.9759,0.9756,0.9751,0.9814,0.9712,0.9556,0.9539,0.9752,0.9754,0.9755,0,0.9662,0.9644,0.9604,0.9604,0.9629,0.9608,0.9617,0.9628,0.9621,0.9617,0.9612,0.9604,0.9598,0.959,0.9622,0.9662,0.9571,0.9632,0.958,0.9579,0.9554,0.9555,0.939,0.9555,0.9555,0.9555,0.9556,0,0.9537,0.9495,0.955,0.9524,0.9479,0.9525,0.9479,0.9494,0.9503,0.948,0.9531,0.9508,0.9554,0.9536,0.9561,0.9518,0.9516,0.9525,0.9531,0.9518,0.9516,0.9509,0.9516,0.9551,0.9552,0.9553,0.9554,0,0.9393,0.9429,0.9388,0.9416,0.9422,0.9387,0.9409,0.9386,0.9409,0.938,0.9375,0.9409,0.939,0.9423,0.9408,0.9425,0.9364,0.9383,0.9361,0.9365,0.931,0.9314,0.9133,0.911,0.9292,0.929,0.9289,0,0.9309,0.9279,0.9304,0.9293,0.93,0.9282,0.9276,0.932,0.9311,0.9318,0.9293,0.928,0.927,0.9237,0.9259,0.9247,0.9264,0.9202,0.9262,0.925,0.9259,0.9259,0.9255,0.9188,0.9185,0.9184,0.9182,0,0.9155,0.9174,0.9164,0.916,0.9151,0.9149,0.9151,0.9139,0.9186,0.9173,0.9155,0.9148,0.9134,0.9118,0.9112,0.9119,0.9157,0.9164,0.9151,0.9135,0.9122,0.9125,0.9323,0.9167,0.9168,0.9169,0.917,0.9171,0.9036,0.9011,0.9025,0.9012,0.9019,0.902,0.8999,0.902,0.9007,0.9,0.9027,0.9002,0.9011,0.9008,0.9011,0.8992,0.9019,0.9,0.8995,0.8989,0.8979,0.9129,0.8991,0.8992,0.8992,0.8992,0.8993,0,0.8882,0.8894,0.8882,0.8884,0.8873,0.8914,0.8918,0.8906,0.8884,0.8891,0.8881,0.886,0.8846,0.8868,0.8857,0.8837,0.8854,0.8832,0.8832,0.8832,0.8956,0.8967,0.8818,0.8818,0.8818,0.8818,0.8819,0.8819,0.88,0.876,0.8781,0.8745,0.8758,0.8736,0.8734,0.8735,0.874,0.8715,0.8704,0.872,0.8732,0.8723,0.8711,0.8718,0.8709,0.868,0.8693,0.8807,0.8824,0.884,0.885,0.8679,0.8679,0.857,0.8569,0.8568]}]]